EW0159 Weather Reports


time (UTC)temp
C
wind
direction
speed
KPH
gust
KPH
rain 1hr
cm
rain 24hr
cm
rain mn
cm
humidity
%
barometer
mb
20260507063046 11 319 0.0 4.8 0.00 0.00 0.00 80 1021.5
20260507061545 11 56 0.0 1.6 0.00 0.00 0.00 80 1021.4
20260507060048 11 57 0.0 8.0 0.00 0.00 0.00 80 1021.5
20260507054543 11 309 1.6 8.0 0.00 0.00 0.00 81 1021.5
20260507053043 11 259 0.0 6.4 0.00 0.00 0.00 81 1021.4
20260507051541 12 344 0.0 8.0 0.00 0.00 0.00 81 1021.4
20260507050038 12 307 0.0 3.2 0.00 0.00 0.00 81 1021.3
20260507044547 12 88 0.0 4.8 0.00 0.00 0.00 80 1021.2
20260507043034 13 338 0.0 1.6 0.00 0.00 0.00 79 1021.2
20260507041533 13 338 1.6 6.4 0.00 0.00 0.00 77 1021.1
20260507040040 13 110 0.0 4.8 0.00 0.00 0.00 76 1021.0
20260507034539 14 94 0.0 11.3 0.00 0.00 0.00 76 1020.9
20260507033043 15 19 0.0 6.4 0.00 0.00 0.00 75 1020.7
20260507031544 15 326 0.0 4.8 0.00 0.00 0.00 75 1020.4
20260507030032 15 5 1.6 11.3 0.00 0.00 0.00 75 1020.2
20260507024528 15 95 0.0 6.4 0.00 0.00 0.00 75 1020.0
20260507023028 16 330 0.0 3.2 0.00 0.00 0.00 75 1019.9
20260507021527 16 273 0.0 6.4 0.00 0.00 0.00 74 1019.8
20260507020027 16 336 4.8 9.7 0.00 0.00 0.00 73 1019.8
20260507014537 17 12 3.2 9.7 0.00 0.00 0.00 73 1019.9
20260507013034 17 348 1.6 12.9 0.00 0.00 0.00 74 1019.9
20260507011532 17 128 4.8 11.3 0.00 0.00 0.00 73 1019.9
20260507010031 17 346 3.2 12.9 0.00 0.00 0.00 74 1019.9
20260507004524 17 5 4.8 11.3 0.00 0.00 0.00 73 1019.8
20260507003024 18 21 3.2 8.0 0.00 0.00 0.00 73 1019.9
20260507001528 18 58 3.2 8.0 0.00 0.00 0.00 72 1019.7
20260507000023 18 57 4.8 11.3 0.00 0.00 0.00 74 1019.8
20260506234522 17 68 4.8 11.3 0.00 0.00 0.00 74 1019.8
20260506233022 17 31 1.6 8.0 0.00 0.00 0.00 75 1019.8
20260506231522 18 69 4.8 9.7 0.00 0.00 0.00 75 1019.9
20260506230022 18 25 3.2 8.0 0.00 0.00 0.00 73 1019.9
20260506224521 18 38 4.8 8.0 0.00 0.00 0.00 73 1020.0
20260506223020 18 65 4.8 12.9 0.00 0.00 0.00 73 1020.2
20260506221519 18 60 4.8 11.3 0.00 0.00 0.00 73 1020.2
20260506220018 19 223 3.2 6.4 0.00 0.00 0.00 72 1020.2
20260506214514 18 309 3.2 8.0 0.00 0.00 0.00 73 1020.2
20260506213014 17 15 1.6 9.7 0.00 0.00 0.00 75 1020.4
20260506211520 18 139 1.6 12.9 0.00 0.00 0.00 75 1020.3
20260506210016 18 32 6.4 14.5 0.00 0.00 0.00 75 1020.4
20260506204511 18 171 4.8 9.7 0.00 0.00 0.00 76 1020.5
20260506203011 18 89 1.6 4.8 0.00 0.00 0.00 75 1020.5
20260506201510 18 123 4.8 8.0 0.00 0.00 0.00 75 1020.4
20260506200007 18 50 1.6 9.7 0.00 0.00 0.00 76 1020.5
20260506194506 17 173 4.8 8.0 0.00 0.00 0.00 77 1020.5
20260506193003 17 67 0.0 6.4 0.00 0.00 0.00 76 1020.6
20260506191502 17 165 3.2 8.0 0.00 0.00 0.00 79 1020.8
20260506190001 16 163 3.2 8.0 0.00 0.00 0.00 79 1020.8
20260506184559 16 317 1.6 4.8 0.00 0.00 0.00 80 1020.8
20260506183056 15 226 1.6 4.8 0.00 0.00 0.00 81 1020.8
20260506181558 15 139 0.0 4.8 0.00 0.00 0.00 80 1020.8
20260506180053 15 109 3.2 11.3 0.00 0.00 0.00 81 1020.6
20260506174550 15 186 3.2 6.4 0.00 0.00 0.00 82 1020.7
20260506173122 15 161 3.2 6.4 0.00 0.00 0.00 82 1020.7
20260506171545 14 148 1.6 6.4 0.00 0.00 0.00 82 1020.6
20260506170044 14 170 0.0 4.8 0.00 0.00 0.00 82 1020.7
20260506164541 14 172 3.2 6.4 0.00 0.00 0.00 82 1020.6
20260506163040 13 180 3.2 6.4 0.00 0.00 0.00 82 1020.6
20260506161537 13 163 0.0 3.2 0.00 0.00 0.00 82 1020.8
20260506160035 13 142 0.0 4.8 0.00 0.00 0.00 82 1020.8
20260506154533 13 179 3.2 6.4 0.00 0.00 0.00 82 1020.3
20260506153031 13 200 4.8 9.7 0.00 0.00 0.00 82 1020.0
20260506151531 13 130 4.8 9.7 0.00 0.00 0.00 82 1019.9
20260506150029 13 166 1.6 4.8 0.00 0.00 0.00 81 1020.2
20260506144533 13 210 1.6 3.2 0.00 0.00 0.00 80 1020.5
20260506143027 13 210 0.0 1.6 0.00 0.00 0.00 80 1020.4
20260506141529 12 210 0.0 1.6 0.00 0.00 0.00 79 1020.1
20260506140023 12 210 0.0 3.2 0.00 0.00 0.00 79 1019.9
20260506134521 12 210 0.0 3.2 0.00 0.00 0.00 78 1019.5
20260506133021 12 210 0.0 0.0 0.00 0.00 0.00 77 1019.7
20260506131529 12 210 0.0 0.0 0.00 0.00 0.00 77 1019.6
20260506130016 12 210 0.0 0.0 0.00 0.00 0.00 77 1019.4
20260506124514 12 210 0.0 0.0 0.00 0.00 0.00 78 1019.1
20260506123014 12 210 0.0 0.0 0.00 0.00 0.00 78 1019.0
20260506121513 12 210 0.0 0.0 0.00 0.00 0.00 78 1018.9
20260506120017 12 210 0.0 0.0 0.00 0.00 0.00 78 1019.0
20260506114509 13 210 0.0 0.0 0.00 0.00 0.00 79 1018.9
20260506113009 13 210 0.0 0.0 0.00 0.00 0.00 78 1018.9
20260506111507 13 210 0.0 0.0 0.00 0.00 0.00 78 1018.7
20260506110006 13 180 0.0 1.6 0.00 0.00 0.00 79 1018.6
20260506104504 13 16 0.0 1.6 0.00 0.00 0.00 78 1018.4
20260506103003 13 16 0.0 0.0 0.00 0.00 0.00 78 1018.2
20260506101501 13 16 0.0 0.0 0.00 0.00 0.00 79 1018.0
20260506100120 13 16 0.0 0.0 0.00 0.00 0.00 79 1017.9
20260506094558 13 16 0.0 0.0 0.00 0.00 0.00 79 1017.8
20260506093057 13 16 0.0 1.6 0.00 0.00 0.00 79 1017.6
20260506091556 13 16 0.0 1.6 0.00 0.00 0.00 78 1017.6
20260506090054 13 16 0.0 0.0 0.00 0.00 0.00 79 1017.6
20260506084620 13 16 0.0 1.6 0.00 0.00 0.00 79 1017.6
20260506083054 13 16 0.0 1.6 0.00 0.00 0.00 79 1017.6
20260506081555 13 59 0.0 1.6 0.00 0.00 0.00 79 1017.6
20260506073049 13 59 0.0 1.6 0.00 0.00 0.00 79 1017.2
20260506071545 13 59 0.0 1.6 0.00 0.00 0.00 80 1017.2